Wind_Speed
9 4 4 4 3 1 5 7 6 3 5 5 4 2 9 2 2 1 20 21 13 9 13 14 13 13 10 11 13 9 11 11 12 15 18 21 23 20 22 20 21 23 23 22
3 8 4 9 7 1 6 6 7 6 8 10 4 5 9 6 5 6 1 13 9 8 6 10 19 17 9 14 7 9 9 9 9 11 15 17 18 20 21 22 22 25 25 24
6 4 4 11 12 14 9 7 12 13 5 9 7 4 4 6 8 10 10 10 10 8 12 11 14 12 13 15 11 8 10 10 7 9 16 18 19 21 24 25 25 26 26 24
2 1 9 9 7 5 9 10 5 12 1 7 10 3 3 11 7 7 12 9 6 8 11 14 14 18 19 18 21 16 16 14 14 15 17 18 20 19 20 21 24 28 28 27
1 1 6 5 2 7 4 11 14 18 14 8 14 7 10 11 10 11 12 4 6 7 9 16 16 20 20 23 29 20 18 17 17 20 19 20 21 21 22 25 28 30 30 31
8 4 7 3 3 6 10 15 2 3 5 6 16 14 16 16 20 13 8 2 3 6 7 6 11 18 21 27 26 23 20 23 30 29 25 24 24 25 27 27 29 25 35 37
9 4 6 5 2 5 5 9 2 4 3 8 16 15 5 20 19 13 8 4 7 4 2 2 6 8 12 20 22 26 23 24 29 28 34 27 30 32 30 27 27 30 31 34
5 1 7 7 5 6 8 8 4 3 3 5 21 8 6 19 14 12 7 5 8 7 5 6 7 8 10 13 21 21 28 34 32 35 32 41 31 36 37 30 33 30 32 35
3 3 10 12 9 7 4 4 7 5 6 3 2 7 15 15 16 10 9 8 9 9 10 13 14 14 14 17 20 18 20 30 36 34 34 38 39 39 32 30 23 29 25 24
2 7 9 13 10 10 11 3 6 10 2 3 2 11 8 20 17 13 12 10 11 14 15 16 18 18 20 22 22 20 21 29 33 35 35 36 40 41 40 34 22 21 18 13
1 2 16 16 11 17 9 11 3 3 5 4 2 5 5 11 11 10 13 13 14 13 13 16 18 23 26 28 25 25 26 25 28 32 33 35 37 39 41 42 24 26 20 10
2 9 13 20 5 12 17 6 9 5 4 4 2 5 2 5 10 15 15 13 10 12 14 16 19 23 30 29 29 27 28 27 27 28 32 33 37 39 39 44 34 31 20 17
8 9 12 13 12 15 10 16 15 15 13 12 3 8 9 8 11 13 11 13 15 16 17 21 25 29 30 26 30 25 27 29 27 28 29 31 34 35 29 31 22 27 22 17
6 6 5 8 11 15 16 16 18 15 12 14 18 20 19 14 14 15 14 13 15 19 27 31 29 30 28 29 31 22 26 27 27 25 24 26 26 30 16 21 19 22 20 21
3 7 7 6 10 12 17 19 20 21 21 22 23 28 20 19 12 10 11 17 20 24 33 35 35 33 34 33 33 25 21 24 23 22 22 22 20 23 22 13 16 29 17 30
5 7 10 12 13 14 22 25 27 24 18 25 25 17 14 12 13 16 19 24 27 33 39 38 35 34 35 33 34 24 20 22 21 19 20 18 18 19 21 22 22 24 23 27
14 15 19 23 21 23 23 22 15 20 24 25 23 23 20 18 19 22 28 31 32 35 41 40 33 33 36 37 25 19 19 20 20 21 18 14 16 19 17 16 13 12 23 26
22 24 24 28 25 7 27 11 14 27 21 20 15 15 13 15 19 22 28 33 32 35 42 39 36 37 33 29 21 21 18 20 20 20 19 16 15 13 12 8 7 7 15 19
17 22 29 28 26 24 23 25 22 20 25 21 21 19 19 23 27 30 31 30 34 41 44 38 39 28 30 26 21 22 22 21 22 20 20 19 16 14 14 13 14 15 11 15
14 17 14 20 14 9 29 26 24 22 22 24 26 26 24 25 27 27 29 33 36 42 37 34 29 27 28 24 23 24 22 21 17 17 18 16 15 15 14 15 17 19 16 16
20 21 16 15 22 22 21 20 14 20 28 27 28 26 24 24 27 31 34 38 41 40 38 33 29 33 30 23 28 25 18 15 14 15 16 13 9 7 8 10 13 12 11 12
15 11 7 11 13 6 13 15 18 21 21 23 23 25 26 29 31 35 39 38 37 38 38 35 33 35 30 26 24 26 16 16 14 13 11 10 8 7 7 8 11 12 13 11
13 11 15 10 13 17 23 26 24 22 22 20 19 21 26 30 33 34 38 35 35 35 37 33 36 32 29 28 26 26 19 13 13 11 11 11 10 11 11 12 14 15 14 12
28 28 33 34 30 25 18 19 21 21 21 22 25 27 27 29 30 32 34 37 33 31 32 33 34 32 31 26 26 23 19 15 13 12 13 12 12 11 12 12 13 13 12 11
32 32 32 32 33 30 23 24 26 24 25 25 28 30 32 34 35 33 30 30 27 28 31 32 34 33 29 24 18 17 16 14 12 14 14 14 14 12 12 12 12 12 13 13
29 24 21 26 25 25 25 27 25 26 30 32 31 32 33 37 41 28 25 28 33 37 35 33 32 36 28 28 21 20 18 17 14 15 16 15 15 14 13 15 14 14 14 14
Wind_Direction
310 333 182 20 15 59 155 76 53 78 188 243 357 275 219 160 130 320 226 239 230 244 237 259 276 290 294 333 339 304 300 304 286 269 260 251 245 241 226 221 224 220 223 228
355 147 148 106 49 339 201 257 323 311 199 219 189 181 135 139 114 103 246 248 227 231 240 256 260 274 309 344 319 324 340 313 299 278 269 258 246 240 237 229 228 236 228 230
137 143 264 291 321 291 285 298 351 340 180 199 194 245 216 153 140 148 162 214 232 240 252 295 282 284 281 338 312 298 307 321 312 292 267 261 247 233 232 233 236 240 240 238
181 31 333 330 290 326 325 6 17 42 1 190 241 257 178 177 152 165 184 189 198 245 248 266 280 272 270 285 303 308 292 313 292 311 284 275 265 249 250 247 247 252 250 246
341 172 333 351 343 355 317 336 309 282 263 301 183 221 195 176 183 187 190 169 172 219 246 252 267 279 287 266 296 274 285 288 307 291 289 272 263 254 241 241 246 249 253 255
273 272 282 315 6 303 305 329 279 200 274 285 253 204 205 196 175 165 179 228 289 277 287 266 239 258 270 265 282 277 275 293 280 294 273 265 260 260 260 254 258 295 274 257
342 219 223 268 304 28 0 15 316 358 358 220 176 197 191 188 192 198 227 237 227 222 184 66 356 304 292 300 289 287 265 278 284 289 260 271 259 256 264 271 262 278 276 258
324 165 240 201 230 0 13 343 11 261 220 295 179 216 214 201 202 231 246 179 231 268 254 280 299 336 317 317 335 310 283 280 287 286 259 263 257 255 256 264 268 273 280 261
308 350 346 228 227 259 6 36 5 343 343 326 123 150 161 191 218 196 194 215 246 257 261 281 303 307 304 320 326 319 284 278 276 276 270 258 261 257 254 263 244 265 261 249
338 324 327 352 243 287 253 12 347 359 24 323 121 170 210 201 193 203 231 243 226 244 274 301 308 311 322 329 324 307 280 274 272 274 270 265 265 266 260 261 246 245 234 258
5 275 299 313 348 332 268 233 239 25 322 171 200 278 282 211 217 240 236 247 245 261 284 293 303 313 324 328 322 313 302 288 278 278 276 274 269 266 265 264 237 235 224 214
320 302 296 287 319 83 70 49 334 356 276 290 248 312 150 213 230 235 234 234 258 279 284 290 303 319 326 326 322 317 316 305 286 285 280 274 274 271 267 268 256 222 214 218
334 343 323 293 276 251 335 356 352 343 342 319 323 314 208 229 235 219 237 245 258 272 292 311 320 320 320 323 329 315 314 314 310 290 283 279 272 269 264 278 232 231 232 234
294 355 323 264 290 305 315 326 328 340 324 317 298 297 282 261 242 234 240 267 292 315 320 319 318 319 321 320 324 316 316 316 313 304 292 283 277 274 252 328 229 238 246 243
299 350 323 310 306 303 302 306 305 308 304 300 300 292 254 261 260 271 288 299 304 312 327 323 320 320 318 315 316 318 313 313 310 304 291 285 284 273 279 269 259 243 250 237
281 289 299 308 301 301 303 291 294 296 295 298 304 262 226 229 249 271 284 294 308 326 324 320 316 314 310 310 309 302 294 309 315 320 305 287 284 278 287 271 285 264 223 209
281 295 295 290 290 291 286 299 309 321 312 300 261 255 247 249 266 283 293 299 309 310 320 320 308 306 307 310 310 287 290 299 306 311 313 298 284 285 281 279 268 256 202 220
272 287 279 277 285 251 285 292 293 298 301 300 268 243 241 260 273 286 298 302 304 313 318 311 304 312 315 311 308 293 288 290 297 301 297 287 284 284 263 246 239 207 202 221
258 280 282 261 264 269 270 290 300 284 295 283 277 272 269 275 285 290 292 295 305 314 318 309 305 309 313 311 301 294 293 287 286 287 294 284 268 267 266 248 215 207 263 261
296 304 320 278 260 247 288 297 292 279 261 262 265 268 267 271 277 288 295 302 311 318 316 310 310 310 308 308 293 290 298 293 279 278 283 280 271 266 269 253 242 250 246 258
291 298 314 310 292 293 297 291 276 236 274 263 262 265 272 278 286 293 300 306 311 319 315 317 313 311 306 306 299 285 303 289 283 278 277 271 258 249 276 267 254 234 229 229
297 304 310 332 326 322 327 308 293 290 287 277 275 277 283 290 294 299 304 307 314 315 311 310 305 316 307 306 302 280 289 290 285 278 262 249 265 268 266 250 243 258 260 249
276 277 307 284 288 311 306 296 296 286 282 281 274 275 282 287 292 295 300 303 305 301 299 303 303 316 302 303 299 281 279 279 271 267 252 252 260 268 273 266 250 245 245 239
279 277 283 289 292 311 304 309 300 283 273 268 271 277 280 284 289 293 295 299 295 292 294 297 307 319 299 296 300 272 264 261 262 254 250 254 260 268 272 251 238 236 235 240
282 287 286 286 286 286 304 306 300 297 293 292 293 292 296 301 305 301 291 285 283 288 292 300 310 310 303 295 284 270 264 261 253 247 243 249 262 276 277 265 255 251 251 249
289 292 290 289 295 300 302 303 299 296 294 294 298 302 306 310 311 306 305 293 293 289 294 298 303 305 298 296 272 265 268 262 252 251 246 250 258 267 277 276 264 253 250 248
Height
3198 3199 3197 3197 3193 3193 3193 3192 3191 3190 3191 3191 3190 3190 3188 3189 3186 3187 3188 3188 3189 3190 3192 3192 3193 3192 3193 3194 3194 3193 3192 3192 3193 3194 3195 3196 3195 3196 3199 3201 3203 3203 3204 3205
3197 3197 3196 3194 3194 3195 3193 3191 3189 3190 3189 3190 3190 3189 3188 3187 3188 3189 3188 3188 3191 3192 3192 3191 3191 3191 3192 3193 3193 3192 3191 3190 3191 3192 3193 3192 3193 3193 3195 3197 3198 3201 3200 3201
3194 3197 3196 3193 3192 3192 3191 3189 3186 3188 3188 3190 3191 3189 3186 3187 3185 3185 3187 3188 3187 3188 3189 3188 3187 3188 3190 3190 3190 3190 3190 3190 3189 3189 3189 3189 3188 3188 3189 3191 3192 3195 3196 3196
3193 3194 3193 3194 3192 3191 3189 3188 3189 3189 3188 3188 3188 3189 3185 3183 3183 3183 3184 3185 3186 3186 3186 3185 3184 3186 3187 3187 3188 3188 3190 3190 3188 3188 3186 3186 3185 3184 3185 3186 3188 3188 3188 3188
3194 3191 3189 3190 3191 3190 3190 3189 3188 3182 3182 3183 3186 3188 3185 3183 3182 3181 3183 3183 3183 3182 3183 3184 3184 3184 3184 3185 3185 3186 3185 3185 3184 3184 3182 3181 3180 3180 3179 3179 3180 3180 3180 3180
3191 3191 3189 3190 3189 3189 3190 3187 3182 3182 3180 3180 3179 3183 3181 3181 3180 3180 3181 3180 3180 3180 3180 3181 3182 3182 3181 3181 3182 3182 3180 3181 3178 3177 3177 3175 3175 3176 3174 3173 3175 3175 3171 3171
3190 3189 3189 3189 3188 3188 3188 3186 3183 3184 3181 3179 3175 3180 3178 3180 3180 3181 3181 3180 3175 3176 3176 3177 3178 3179 3179 3178 3178 3175 3175 3174 3172 3171 3171 3169 3169 3169 3169 3168 3171 3166 3164 3165
3190 3190 3190 3188 3186 3187 3187 3186 3185 3186 3184 3175 3177 3176 3175 3177 3179 3179 3179 3177 3174 3173 3173 3174 3175 3175 3175 3176 3174 3171 3170 3168 3165 3163 3163 3162 3160 3161 3162 3164 3164 3162 3159 3160
3190 3187 3188 3186 3186 3189 3187 3186 3185 3181 3179 3177 3177 3176 3177 3178 3178 3177 3176 3175 3173 3171 3171 3172 3172 3171 3170 3168 3166 3166 3164 3161 3158 3154 3153 3153 3151 3151 3153 3156 3156 3155 3152 3151
3190 3187 3186 3185 3185 3188 3185 3185 3184 3181 3182 3181 3178 3177 3174 3174 3174 3175 3174 3174 3172 3169 3168 3168 3166 3164 3163 3161 3159 3157 3156 3153 3148 3145 3144 3143 3141 3140 3142 3146 3144 3146 3145 3145
3188 3188 3185 3186 3186 3183 3182 3182 3182 3180 3180 3179 3181 3174 3169 3171 3173 3173 3171 3171 3170 3168 3167 3165 3163 3160 3157 3153 3151 3149 3147 3146 3142 3138 3136 3134 3131 3132 3133 3134 3134 3138 3138 3138
3187 3186 3183 3182 3185 3183 3182 3183 3182 3179 3179 3176 3175 3172 3169 3172 3171 3170 3169 3169 3168 3166 3164 3161 3159 3156 3152 3147 3144 3141 3137 3133 3134 3132 3129 3128 3126 3125 3125 3119 3113 3126 3132 3132
3186 3184 3181 3179 3181 3180 3179 3180 3180 3179 3178 3175 3174 3172 3168 3168 3168 3167 3166 3165 3164 3163 3161 3159 3156 3153 3150 3145 3140 3135 3132 3128 3124 3121 3120 3118 3117 3117 3113 3110 3104 3116 3126 3125
3182 3181 3182 3181 3181 3181 3179 3178 3177 3177 3176 3174 3171 3168 3163 3163 3162 3161 3161 3160 3160 3158 3156 3154 3151 3147 3144 3141 3137 3132 3128 3123 3118 3115 3113 3111 3110 3106 3098 3107 3111 3119 3119 3122
3180 3179 3179 3179 3178 3178 3176 3175 3174 3173 3171 3168 3166 3162 3159 3158 3157 3156 3156 3154 3153 3153 3149 3147 3143 3140 3137 3133 3129 3127 3124 3119 3114 3109 3106 3106 3106 3103 3102 3103 3107 3109 3113 3112
3178 3177 3176 3176 3175 3174 3172 3171 3170 3168 3165 3161 3158 3155 3155 3155 3154 3154 3153 3151 3147 3144 3144 3142 3137 3134 3130 3126 3123 3121 3118 3114 3111 3107 3104 3102 3102 3102 3102 3102 3102 3102 3103 3107
3174 3173 3171 3168 3171 3169 3166 3166 3164 3161 3159 3156 3151 3151 3149 3148 3149 3149 3148 3147 3144 3143 3139 3135 3131 3128 3125 3120 3116 3114 3112 3109 3106 3104 3102 3099 3098 3098 3096 3095 3094 3092 3097 3102
3168 3169 3167 3164 3164 3162 3160 3160 3159 3157 3154 3151 3148 3146 3145 3145 3144 3142 3142 3141 3140 3137 3134 3129 3126 3121 3118 3113 3111 3108 3107 3104 3101 3100 3099 3097 3096 3096 3095 3093 3091 3094 3098 3102
3165 3164 3161 3158 3156 3154 3154 3155 3154 3152 3149 3145 3145 3144 3143 3142 3140 3139 3138 3136 3134 3130 3126 3121 3119 3115 3111 3108 3106 3103 3101 3100 3097 3095 3094 3093 3092 3093 3094 3094 3093 3094 3096 3097
3158 3157 3156 3153 3150 3147 3148 3148 3147 3144 3140 3141 3140 3139 3138 3137 3135 3135 3132 3130 3128 3124 3119 3115 3112 3110 3106 3103 3100 3097 3095 3093 3091 3089 3089 3089 3088 3088 3088 3088 3090 3092 3092 3092
3154 3152 3151 3149 3146 3144 3141 3139 3139 3138 3137 3132 3132 3133 3133 3132 3132 3129 3127 3123 3121 3117 3112 3109 3106 3104 3101 3098 3095 3092 3090 3088 3087 3085 3084 3084 3085 3085 3084 3084 3085 3085 3087 3088
3152 3151 3149 3147 3144 3142 3141 3138 3137 3135 3131 3129 3128 3127 3126 3125 3124 3121 3118 3115 3112 3110 3106 3103 3101 3098 3095 3093 3086 3087 3086 3084 3083 3082 3081 3082 3082 3083 3083 3082 3082 3082 3084 3085
3150 3148 3147 3148 3143 3140 3136 3133 3130 3128 3126 3124 3123 3122 3120 3118 3116 3114 3111 3107 3105 3103 3101 3098 3095 3091 3089 3087 3085 3082 3082 3080 3080 3079 3080 3081 3080 3081 3080 3081 3081 3081 3081 3082
3143 3143 3140 3138 3137 3133 3131 3129 3127 3125 3122 3120 3118 3116 3114 3112 3110 3107 3104 3101 3098 3095 3093 3091 3089 3086 3083 3081 3078 3076 3076 3076 3076 3076 3077 3078 3078 3079 3078 3078 3078 3077 3078 3079
3135 3134 3132 3131 3130 3127 3126 3123 3121 3119 3117 3115 3113 3111 3108 3105 3103 3099 3096 3094 3091 3089 3087 3084 3083 3081 3077 3076 3074 3072 3071 3071 3071 3071 3073 3074 3074 3074 3073 3073 3073 3073 3074 3075
3128 3127 3126 3123 3124 3121 3119 3118 3115 3112 3110 3107 3105 3102 3099 3097 3094 3091 3089 3088 3086 3083 3081 3078 3076 3073 3071 3069 3067 3067 3066 3066 3066 3067 3068 3069 3070 3070 3070 3070 3070 3070 3070 3071